Location: Hobi?a Gr?di?te
(45.4833°N, 22.7833°E)
Time: 05:26:47
(UTC+00:00)

IRIDIUM 106 - Pass Details

Date: 28 January 2023
Orbit: 776 x 779 km, 86.4° (Epoch: 29 March)

Event Time Altitude Azimuth Distance (km) Brightness Sun altitude
Rises 17:22:01 0° 1° (N) 3,276 7.5 -19.8°
Reaches altitude 10° 17:24:29 10° 8° (N) 2,343 6.7 -20.2°
Maximum altitude 17:29:32 47° 82° (E) 1,034 4.5 -21.1°
Enters shadow 17:30:01 45° 99° (E) 1,054 4.5 -21.2°
Exits shadow 17:35:42 - 159° (SSE) 2,765 7.0 -22.2°
Sets 17:36:58 0° 162° (SSE) 3,249 7.4 -22.4°
